Total_Precipitation_Accumulation
0.00 0.01 0.01 0.02 0.02 0.03 0.06 0.09 0.17 0.23 0.16 0.16 0.32 0.50 0.62 0.71 0.91 1.02 0.99 0.95 0.95 1.22 1.55 1.69 1.91 2.10 2.57 3.00 3.43 3.59 3.55 2.89 2.27 2.00 1.77 1.66 1.50 1.37 1.38 1.34 1.25 1.18 1.08 1.06
0.02 0.04 0.03 0.02 0.03 0.05 0.09 0.12 0.20 0.21 0.14 0.15 0.32 0.59 0.76 0.82 0.78 0.82 0.79 0.85 0.88 1.23 1.62 1.96 2.40 2.54 2.37 2.60 3.05 3.07 2.63 2.09 1.67 1.46 1.32 1.21 1.16 1.05 0.97 0.90 0.87 0.83 0.83 0.88
0.04 0.05 0.03 0.03 0.05 0.10 0.12 0.14 0.18 0.16 0.14 0.20 0.39 0.72 0.98 0.90 0.66 0.58 0.59 0.64 0.78 1.09 1.49 1.86 2.26 2.45 2.23 2.29 2.23 1.86 1.55 1.28 1.02 0.88 0.83 0.84 0.81 0.71 0.61 0.54 0.52 0.55 0.59 0.60
0.03 0.03 0.03 0.04 0.06 0.07 0.08 0.07 0.07 0.06 0.12 0.27 0.41 0.91 1.24 1.04 0.74 0.58 0.55 0.64 0.71 0.77 0.95 1.22 1.43 1.72 1.81 1.61 1.39 1.17 1.02 0.88 0.77 0.75 0.70 0.74 0.63 0.54 0.48 0.40 0.40 0.42 0.44 0.43
0.03 0.03 0.03 0.04 0.05 0.05 0.05 0.04 0.04 0.08 0.12 0.26 0.46 0.77 1.11 1.08 0.94 0.76 0.64 0.63 0.57 0.51 0.57 0.71 0.80 0.93 1.04 0.98 0.88 0.75 0.80 0.85 0.77 0.71 0.65 0.62 0.51 0.42 0.36 0.37 0.41 0.44 0.44 0.42
0.05 0.05 0.04 0.03 0.04 0.04 0.04 0.05 0.12 0.25 0.36 0.65 0.64 0.66 0.95 0.90 0.83 0.78 0.63 0.48 0.38 0.35 0.40 0.49 0.49 0.49 0.50 0.51 0.52 0.51 0.58 0.67 0.62 0.59 0.56 0.53 0.48 0.43 0.38 0.35 0.36 0.35 0.38 0.39
0.14 0.12 0.09 0.05 0.05 0.05 0.05 0.08 0.31 0.67 0.96 1.05 0.62 0.61 0.80 0.70 0.71 0.74 0.52 0.31 0.25 0.27 0.28 0.33 0.34 0.32 0.30 0.31 0.30 0.31 0.34 0.42 0.45 0.48 0.50 0.46 0.44 0.40 0.36 0.31 0.28 0.28 0.28 0.32
0.15 0.18 0.10 0.05 0.05 0.06 0.06 0.07 0.19 0.32 0.44 0.58 0.61 0.98 0.92 0.54 0.53 0.43 0.24 0.14 0.14 0.22 0.20 0.19 0.20 0.21 0.19 0.17 0.17 0.20 0.19 0.19 0.23 0.32 0.36 0.31 0.31 0.28 0.28 0.35 0.32 0.26 0.25 0.28
0.07 0.06 0.05 0.05 0.05 0.07 0.05 0.04 0.06 0.09 0.14 0.37 0.70 0.99 0.73 0.38 0.36 0.23 0.13 0.07 0.07 0.09 0.11 0.10 0.10 0.11 0.12 0.11 0.10 0.13 0.16 0.18 0.17 0.15 0.17 0.18 0.20 0.22 0.28 0.33 0.30 0.25 0.25 0.23
0.04 0.02 0.04 0.05 0.05 0.06 0.06 0.05 0.06 0.06 0.12 0.28 0.55 0.84 0.79 0.53 0.41 0.22 0.12 0.07 0.06 0.05 0.05 0.05 0.05 0.07 0.09 0.08 0.08 0.10 0.13 0.13 0.12 0.10 0.09 0.09 0.15 0.22 0.30 0.33 0.27 0.24 0.21 0.20
0.04 0.02 0.03 0.04 0.06 0.07 0.08 0.08 0.08 0.09 0.11 0.18 0.40 0.58 0.46 0.42 0.30 0.19 0.14 0.12 0.06 0.03 0.03 0.03 0.03 0.05 0.08 0.10 0.09 0.08 0.10 0.11 0.09 0.08 0.07 0.11 0.20 0.23 0.30 0.44 0.41 0.26 0.20 0.18
0.04 0.03 0.04 0.08 0.11 0.10 0.09 0.09 0.10 0.13 0.14 0.14 0.21 0.35 0.28 0.26 0.18 0.16 0.13 0.11 0.06 0.04 0.03 0.04 0.03 0.04 0.06 0.10 0.09 0.07 0.08 0.10 0.11 0.10 0.09 0.11 0.18 0.23 0.26 0.32 0.35 0.28 0.22 0.19
0.05 0.05 0.06 0.20 0.29 0.20 0.13 0.09 0.10 0.12 0.12 0.13 0.25 0.37 0.29 0.26 0.21 0.15 0.09 0.08 0.06 0.04 0.04 0.04 0.05 0.09 0.07 0.06 0.08 0.08 0.08 0.10 0.11 0.16 0.19 0.16 0.13 0.12 0.13 0.16 0.19 0.23 0.25 0.26
0.07 0.06 0.07 0.19 0.28 0.29 0.21 0.14 0.14 0.12 0.12 0.15 0.21 0.34 0.27 0.27 0.26 0.15 0.12 0.12 0.10 0.04 0.03 0.04 0.05 0.07 0.13 0.10 0.09 0.09 0.11 0.13 0.18 0.19 0.19 0.18 0.16 0.15 0.16 0.17 0.19 0.23 0.26 0.27
0.08 0.06 0.04 0.08 0.14 0.16 0.17 0.16 0.15 0.11 0.10 0.15 0.17 0.23 0.23 0.21 0.30 0.21 0.19 0.18 0.14 0.08 0.05 0.04 0.04 0.07 0.14 0.19 0.15 0.12 0.14 0.17 0.23 0.29 0.29 0.23 0.18 0.17 0.18 0.19 0.20 0.22 0.23 0.22
0.14 0.10 0.09 0.09 0.11 0.12 0.13 0.15 0.12 0.08 0.06 0.06 0.10 0.16 0.17 0.22 0.27 0.23 0.20 0.18 0.20 0.13 0.08 0.07 0.07 0.08 0.09 0.14 0.16 0.16 0.16 0.16 0.20 0.28 0.35 0.37 0.32 0.27 0.24 0.26 0.25 0.26 0.26 0.27
0.25 0.18 0.17 0.18 0.14 0.14 0.20 0.17 0.12 0.09 0.08 0.10 0.15 0.19 0.24 0.27 0.26 0.24 0.26 0.20 0.16 0.11 0.08 0.08 0.08 0.09 0.08 0.10 0.12 0.13 0.12 0.16 0.28 0.33 0.33 0.42 0.49 0.43 0.43 0.44 0.39 0.37 0.35 0.36
0.32 0.31 0.24 0.22 0.25 0.31 0.22 0.15 0.13 0.14 0.17 0.17 0.18 0.23 0.32 0.36 0.27 0.24 0.27 0.26 0.19 0.10 0.10 0.10 0.08 0.07 0.07 0.07 0.08 0.10 0.13 0.17 0.29 0.34 0.32 0.42 0.51 0.47 0.47 0.48 0.46 0.50 0.55 0.57
0.33 0.37 0.35 0.31 0.34 0.35 0.26 0.21 0.21 0.25 0.29 0.25 0.30 0.35 0.36 0.30 0.25 0.25 0.19 0.12 0.09 0.07 0.08 0.07 0.08 0.09 0.09 0.10 0.11 0.12 0.20 0.27 0.34 0.41 0.45 0.52 0.61 0.63 0.64 0.61 0.62 0.68 0.75 0.78
0.26 0.34 0.39 0.39 0.45 0.51 0.40 0.32 0.29 0.35 0.54 0.43 0.37 0.34 0.26 0.25 0.32 0.32 0.19 0.13 0.10 0.08 0.09 0.10 0.11 0.11 0.12 0.14 0.17 0.22 0.30 0.40 0.48 0.51 0.54 0.63 0.77 0.85 0.85 0.83 0.85 0.88 0.95 0.98
0.34 0.35 0.38 0.43 0.50 0.47 0.40 0.36 0.33 0.60 0.76 0.53 0.46 0.48 0.46 0.40 0.35 0.28 0.21 0.17 0.14 0.10 0.10 0.14 0.17 0.20 0.22 0.25 0.31 0.37 0.43 0.48 0.48 0.50 0.55 0.63 0.83 1.04 1.04 1.06 1.07 1.06 1.06 1.10
0.49 0.45 0.44 0.51 0.69 0.71 0.48 0.40 0.57 0.76 0.63 0.61 0.53 0.49 0.52 0.43 0.31 0.25 0.20 0.17 0.14 0.12 0.11 0.14 0.18 0.21 0.28 0.35 0.43 0.51 0.51 0.52 0.56 0.60 0.65 0.73 0.90 0.98 1.04 1.16 1.19 1.21 1.19 1.17
0.50 0.55 0.53 0.63 0.78 0.69 0.60 0.58 0.56 0.59 0.57 0.52 0.42 0.38 0.40 0.40 0.32 0.27 0.23 0.18 0.15 0.13 0.12 0.14 0.17 0.22 0.28 0.38 0.52 0.66 0.68 0.68 0.67 0.68 0.72 0.82 0.92 1.01 1.12 1.18 1.14 1.17 1.24 1.26
0.51 0.47 0.57 0.79 0.77 0.67 0.56 0.48 0.43 0.33 0.28 0.26 0.25 0.21 0.19 0.21 0.22 0.19 0.16 0.15 0.15 0.15 0.14 0.16 0.18 0.25 0.31 0.37 0.51 0.62 0.67 0.70 0.68 0.65 0.65 0.74 0.90 0.95 1.03 1.15 1.16 1.23 1.28 1.31
0.51 0.48 0.56 0.77 0.77 0.68 0.62 0.51 0.46 0.31 0.24 0.17 0.16 0.14 0.13 0.14 0.15 0.15 0.16 0.15 0.12 0.11 0.12 0.15 0.20 0.28 0.32 0.41 0.55 0.65 0.71 0.75 0.76 0.73 0.68 0.70 0.78 0.88 0.94 1.06 1.16 1.18 1.19 1.15
0.31 0.44 0.56 0.64 0.63 0.62 0.61 0.44 0.35 0.30 0.25 0.20 0.16 0.12 0.09 0.08 0.08 0.08 0.10 0.10 0.09 0.10 0.13 0.18 0.24 0.31 0.35 0.41 0.52 0.61 0.75 0.90 0.93 0.87 0.78 0.74 0.74 0.81 0.87 0.96 0.97 0.88 0.86 0.83